Weather History for Litchfield, MN

Change the Weather History Date:

Thursday, October 6, 2011

  Actual Average Record
Temperature  
Mean Temperature 66 °F -  
Max Temperature 80 °F 63 °F 87 °F (1961)
Min Temperature 53 °F 39 °F 21 °F (1976)
Cooling Degree Days 2    
Growing Degree Days 16 (Base 50)    
Moisture  
Dew Point 41 °F    
Average Humidity 43    
Maximum Humidity 67    
Minimum Humidity 21    
Precipitation  
Precipitation 0.00 in - - ()
Sea Level Pressure  
Sea Level Pressure 30.01 in    
Wind  
Wind Speed 9 mph (SE)    
Max Wind Speed 20 mph    
Max Gust Speed 28 mph    
Visibility 10 miles    
Events      
Averages and records for this station are not official NWS values.
T = Trace of Precipitation, MM = Missing Value Source: NWS Daily Summary

Daily Weather History Graph

Daily Weather History Graph

Search for Another Location

Airport:

Trip Planner

Search our weather history database for the weather conditions in past years. The results will help you decide how hot, cold, wet, or windy it might be!

Date:

Astronomy

Oct. 06, 2011 Rise Set
Actual Time 7:22 AM CDT 6:49 PM CDT
Civil Twilight 6:52 AM CDT 7:18 PM CDT
Nautical Twilight 6:18 AM CDT 7:52 PM CDT
Astronomical Twilight 5:44 AM CDT 8:27 PM CDT
Moon 4:14 PM CDT (10/6) 1:58 AM CDT (10/6)
Length of Visible Light 12h 26m
Length of Day
11h 27m
Waxing Gibbous, 75% of the Moon is Illuminated
Oct 6
Waxing Gibbous
Oct 11
Full
Oct 19
Last Quarter
Oct 26
New
Nov 2
First Quarter

Hourly Weather History & Observations

Time (CDT) Temp. Dew Point Humidity Pressure Visibility Wind Dir Wind Speed Gust Speed Precip Events Conditions
12:13 AM 64.4 °F 42.8 °F 45% 30.03 in 10.0 mi SE 6.9 mph - N/A   Clear
12:33 AM 64.4 °F 42.8 °F 45% 30.03 in 10.0 mi SSE 5.8 mph - N/A   Clear
12:53 AM 62.6 °F 42.8 °F 48% 30.03 in 10.0 mi SSE 4.6 mph - N/A   Clear
1:14 AM 60.8 °F 44.6 °F 55% 30.03 in 10.0 mi SE 6.9 mph - N/A   Clear
1:33 AM 60.8 °F 44.6 °F 55% 30.03 in 10.0 mi SE 5.8 mph - N/A   Clear
1:53 AM 60.8 °F 42.8 °F 52% 30.04 in 10.0 mi SE 6.9 mph - N/A   Clear
2:13 AM 59.0 °F 42.8 °F 55% 30.04 in 10.0 mi SE 6.9 mph - N/A   Clear
2:33 AM 57.2 °F 44.6 °F 63% 30.04 in 10.0 mi SE 8.1 mph - N/A   Clear
2:53 AM 59.0 °F 42.8 °F 55% 30.03 in 10.0 mi SE 9.2 mph - N/A   Clear
3:13 AM 57.2 °F 42.8 °F 59% 30.04 in 10.0 mi SE 6.9 mph - N/A   Clear
3:33 AM 55.4 °F 42.8 °F 63% 30.04 in 10.0 mi SE 6.9 mph - N/A   Clear
3:53 AM 55.4 °F 42.8 °F 63% 30.04 in 10.0 mi SE 8.1 mph - N/A   Clear
4:13 AM 55.4 °F 42.8 °F 63% 30.04 in 10.0 mi SE 8.1 mph - N/A   Clear
4:33 AM 55.4 °F 42.8 °F 63% 30.04 in 10.0 mi SE 8.1 mph - N/A   Clear
4:53 AM 55.4 °F 42.8 °F 63% 30.04 in 10.0 mi SE 8.1 mph - N/A   Clear
5:13 AM 55.4 °F 42.8 °F 63% 30.04 in 10.0 mi SE 9.2 mph - N/A   Clear
5:33 AM 55.4 °F 42.8 °F 63% 30.04 in 10.0 mi SE 8.1 mph - N/A   Clear
5:53 AM 55.4 °F 42.8 °F 63% 30.04 in 10.0 mi SSE 8.1 mph - N/A   Clear
6:13 AM 55.4 °F 42.8 °F 63% 30.04 in 10.0 mi SE 8.1 mph - N/A   Clear
6:33 AM 55.4 °F 42.8 °F 63% 30.04 in 10.0 mi SE 8.1 mph - N/A   Clear
6:53 AM 55.4 °F 42.8 °F 63% 30.04 in 10.0 mi SE 8.1 mph - N/A   Clear
7:13 AM 55.4 °F 42.8 °F 63% 30.04 in 10.0 mi SE 6.9 mph - N/A   Clear
7:33 AM 53.6 °F 42.8 °F 67% 30.04 in 10.0 mi SE 6.9 mph - N/A   Clear
7:53 AM 55.4 °F 42.8 °F 63% 30.05 in 10.0 mi SE 8.1 mph - N/A   Clear
8:13 AM 57.2 °F 42.8 °F 59% 30.05 in 10.0 mi SSE 6.9 mph - N/A   Clear
8:53 AM 60.8 °F 42.8 °F 52% 30.05 in 10.0 mi SSE 8.1 mph - N/A   Clear
9:13 AM 60.8 °F 42.8 °F 52% 30.05 in 10.0 mi SSE 6.9 mph - N/A   Clear
9:33 AM 62.6 °F 42.8 °F 48% 30.05 in 10.0 mi SSE 8.1 mph - N/A   Clear
9:53 AM 64.4 °F 44.6 °F 49% 30.05 in 10.0 mi SSE 6.9 mph - N/A   Clear
10:13 AM 64.4 °F 42.8 °F 45% 30.05 in 10.0 mi SSE 8.1 mph - N/A   Clear
10:33 AM 68.0 °F 44.6 °F 43% 30.04 in 10.0 mi SSE 6.9 mph - N/A   Clear
10:53 AM 69.8 °F 42.8 °F 38% 30.04 in 10.0 mi SE 9.2 mph - N/A   Clear
11:13 AM 69.8 °F 42.8 °F 38% 30.03 in 10.0 mi SSE 11.5 mph - N/A   Clear
11:33 AM 71.6 °F 42.8 °F 35% 30.03 in 10.0 mi SSE 9.2 mph 17.3 mph N/A   Clear
11:53 AM 73.4 °F 42.8 °F 33% 30.03 in 10.0 mi SSE 9.2 mph 23.0 mph N/A   Clear
12:13 PM 73.4 °F 41.0 °F 31% 30.02 in 10.0 mi SE 15.0 mph 19.6 mph N/A   Clear
12:33 PM 75.2 °F 41.0 °F 29% 30.02 in 10.0 mi SSE 12.7 mph 21.9 mph N/A   Clear
12:53 PM 75.2 °F 42.8 °F 31% 30.02 in 10.0 mi SSE 9.2 mph 21.9 mph N/A   Clear
1:13 PM 77.0 °F 41.0 °F 28% 30.01 in 10.0 mi SSE 12.7 mph 23.0 mph N/A   Clear
1:33 PM 78.8 °F 41.0 °F 26% 30.00 in 10.0 mi SSE 12.7 mph 23.0 mph N/A   Clear
1:53 PM 78.8 °F 39.2 °F 24% 29.99 in 10.0 mi SSE 18.4 mph 26.5 mph N/A   Clear
2:13 PM 78.8 °F 39.2 °F 24% 29.98 in 10.0 mi SSE 15.0 mph 23.0 mph N/A   Clear
2:33 PM 78.8 °F 39.2 °F 24% 29.98 in 10.0 mi SSE 19.6 mph 26.5 mph N/A   Clear
3:13 PM 78.8 °F 37.4 °F 23% 29.97 in 7.0 mi SSE 17.3 mph 26.5 mph N/A   Clear
3:33 PM 78.8 °F 37.4 °F 23% 29.96 in 10.0 mi SE 13.8 mph 19.6 mph N/A   Clear
3:53 PM 80.6 °F 37.4 °F 21% 29.96 in 10.0 mi SE 16.1 mph 27.6 mph N/A   Clear
4:13 PM 80.6 °F 37.4 °F 21% 29.96 in 10.0 mi SSE 17.3 mph 26.5 mph N/A   Clear
4:33 PM 78.8 °F 37.4 °F 23% 29.95 in 10.0 mi SSE 17.3 mph 24.2 mph N/A   Clear
4:53 PM 77.0 °F 35.6 °F 22% 29.95 in 10.0 mi SSE 13.8 mph 21.9 mph N/A   Clear
5:13 PM 77.0 °F 35.6 °F 22% 29.95 in 10.0 mi SE 12.7 mph 20.7 mph N/A   Clear
5:34 PM 77.0 °F 35.6 °F 22% 29.94 in 10.0 mi SE 10.4 mph - N/A   Clear
5:53 PM 77.0 °F 35.6 °F 22% 29.93 in 10.0 mi SE 16.1 mph 19.6 mph N/A   Clear
6:13 PM 75.2 °F 35.6 °F 24% 29.94 in 10.0 mi SE 15.0 mph 23.0 mph N/A   Clear
6:33 PM 75.2 °F 35.6 °F 24% 29.94 in 10.0 mi SE 12.7 mph 21.9 mph N/A   Clear
6:53 PM 75.2 °F 35.6 °F 24% 29.94 in 10.0 mi SE 15.0 mph 23.0 mph N/A   Clear
7:00 PM 75.2 °F 37.4 °F 25% 29.94 in 10.0 mi SE 13.8 mph 23.0 mph N/A   Scattered Clouds
7:33 PM 73.4 °F 37.4 °F 27% 29.94 in 10.0 mi SE 12.7 mph 20.7 mph N/A   Mostly Cloudy
7:53 PM 71.6 °F 39.2 °F 31% 29.95 in 10.0 mi SE 12.7 mph 18.4 mph N/A   Scattered Clouds
8:13 PM 71.6 °F 39.2 °F 31% 29.94 in 10.0 mi SE 12.7 mph - N/A   Clear
8:33 PM 71.6 °F 39.2 °F 31% 29.94 in 10.0 mi SE 11.5 mph - N/A   Clear
8:53 PM 69.8 °F 41.0 °F 35% 29.94 in 10.0 mi SE 12.7 mph 20.7 mph N/A   Clear
9:13 PM 69.8 °F 41.0 °F 35% 29.95 in 10.0 mi SE 13.8 mph 18.4 mph N/A   Clear
9:33 PM 69.8 °F 42.8 °F 38% 29.95 in 10.0 mi SE 13.8 mph 19.6 mph N/A   Clear
9:53 PM 69.8 °F 42.8 °F 38% 29.94 in 10.0 mi SE 15.0 mph 20.7 mph N/A   Clear
10:13 PM 69.8 °F 42.8 °F 38% 29.94 in 10.0 mi SE 15.0 mph 23.0 mph N/A   Clear
10:33 PM 69.8 °F 44.6 °F 40% 29.94 in 10.0 mi SE 13.8 mph 20.7 mph N/A   Clear
10:53 PM 69.8 °F 44.6 °F 40% 29.94 in 10.0 mi SE 12.7 mph 20.7 mph N/A   Clear
11:13 PM 69.8 °F 44.6 °F 40% 29.94 in 10.0 mi SE 12.7 mph 19.6 mph N/A   Clear
11:33 PM 68.0 °F 46.4 °F 46% 29.94 in 10.0 mi SE 12.7 mph 19.6 mph N/A   Clear
11:53 PM 68.0 °F 46.4 °F 46% 29.94 in 10.0 mi SE 13.8 mph 20.7 mph N/A   Clear